This is the latest recevied weather packets stored in our database for station/object OK1PMP-6. If no packets are shown the sender has not sent any weather packets the latest 10 day(s).
| Time | Temp. | Humidity | Pressure | Rain* | Wind** | Luminosity | Snow |
|---|---|---|---|---|---|---|---|
| 1778197541 | 7.78° C | 90% | 1019.4 hPa | 0 mm | - | 0 W/m² | - |
| 1778196804 | 7.78° C | 90% | 1019.3 hPa | 0 mm | - | 0 W/m² | - |
| 1778196402 | 8.33° C | 90% | 1019.4 hPa | 0 mm | - | 0 W/m² | - |
| 1778194921 | 8.33° C | 89% | 1019.5 hPa | 0 mm | - | 0 W/m² | - |
| 1778193923 | 8.33° C | 90% | 1019.4 hPa | 0 mm | - | 0 W/m² | - |
| 1778193035 | 8.33° C | 89% | 1019.1 hPa | 0 mm | - | 0 W/m² | - |
| 1778192123 | 8.89° C | 89% | 1019.1 hPa | 0 mm | - | 0 W/m² | - |
| 1778191224 | 8.89° C | 89% | 1019.3 hPa | 0 mm | - | 0 W/m² | - |
| 1778190325 | 8.89° C | 90% | 1019 hPa | 0 mm | - | 0 W/m² | - |
| 1778189423 | 8.89° C | 90% | 1019 hPa | 0 mm | - | 0 W/m² | - |
| 1778188523 | 8.89° C | 91% | 1018.9 hPa | 0 mm | - | 0 W/m² | - |
| 1778187622 | 8.89° C | 90% | 1018.9 hPa | 0 mm | - | 0 W/m² | - |
| 1778186731 | 8.89° C | 91% | 1018.7 hPa | 0 mm | - | 0 W/m² | - |
| 1778185817 | 8.89° C | 91% | 1018.5 hPa | 0 mm | - | 0 W/m² | - |
| 1778184915 | 8.89° C | 91% | 1018.3 hPa | 0 mm | - | 0 W/m² | - |
| 1778184027 | 8.89° C | 91% | 1018.2 hPa | 0 mm | - | 0 W/m² | - |
| 1778183108 | 8.89° C | 91% | 1018.1 hPa | 0 mm | - | 0 W/m² | - |
| 1778182227 | 9.44° C | 91% | 1017.6 hPa | 0 mm | - | 0 W/m² | - |
| 1778181304 | 10° C | 89% | 1017.6 hPa | 0 mm | - | 0 W/m² | - |
| 1778180407 | 10.56° C | 87% | 1017.3 hPa | 0 mm | - | 0 W/m² | - |
| 1778179504 | 11.11° C | 85% | 1017.4 hPa | 0 mm | - | 0 W/m² | - |
| 1778178597 | 11.11° C | 85% | 1016.8 hPa | 0 mm | - | 2 W/m² | - |
| 1778177698 | 11.67° C | 84% | 1016.9 hPa | 0 mm | - | 5 W/m² | - |
| 1778176797 | 12.78° C | 79% | 1016.8 hPa | 0 mm | - | 9 W/m² | - |
| 1778175944 | 13.89° C | 74% | 1016.6 hPa | 0 mm | - | 17 W/m² | - |
* Rain latest hour (hover to see other rain measurements)
** Current wind speed in m/s (hover to see current wind gust speed)